EW2000 Weather Reports


Display with metric or nautical units.
time (UTC)temp
F
wind
direction
speed
MPH
gust
MPH
rain 1hr
in
rain 24hr
in
rain mn
in
humidity
%
barometer
mb
20260506211519 70 281 2.0 11.0 0.00 0.00 0.00 60 1018.9
20260506211008 70 5 2.0 11.0 0.00 0.00 0.00 59 1018.9
20260506210508 70 234 3.0 11.0 0.00 0.00 0.00 60 1019.1
20260506210032 69 243 4.0 10.0 0.00 0.00 0.00 60 1019.0
20260506205507 69 352 1.0 6.0 0.00 0.00 0.00 61 1019.1
20260506205009 69 5 1.0 6.0 0.00 0.00 0.00 62 1019.0
20260506204528 69 315 0.0 8.0 0.00 0.00 0.00 62 1019.1
20260506204010 69 331 2.0 9.0 0.00 0.00 0.00 61 1019.2
20260506203504 68 314 2.0 9.0 0.00 0.00 0.00 63 1019.2
20260506203007 68 36 1.0 7.0 0.00 0.00 0.00 63 1019.3
20260506202503 68 338 1.0 6.0 0.00 0.00 0.00 63 1019.4
20260506202009 68 312 1.0 5.0 0.00 0.00 0.00 64 1019.4
20260506201513 68 349 0.0 7.0 0.00 0.00 0.00 63 1019.3
20260506201006 67 299 0.0 7.0 0.00 0.00 0.00 65 1019.3
20260506200508 67 342 0.0 8.0 0.00 0.00 0.00 63 1019.4
20260506200017 67 350 2.0 8.0 0.00 0.00 0.00 64 1019.4
20260506195511 67 276 0.0 7.0 0.00 0.00 0.00 66 1019.4
20260506195013 67 340 1.0 7.0 0.00 0.00 0.00 66 1019.4
20260506194524 66 250 0.0 9.0 0.00 0.00 0.00 67 1019.4
20260506194012 66 350 0.0 9.0 0.00 0.00 0.00 66 1019.5
20260506193509 67 11 3.0 8.0 0.00 0.00 0.00 65 1019.5
20260506193038 67 317 0.0 5.0 0.00 0.00 0.00 69 1019.6
20260506192507 66 329 0.0 2.0 0.00 0.00 0.00 67 1019.7
20260506192004 66 313 0.0 8.0 0.00 0.00 0.00 66 1019.8
20260506191510 65 309 2.0 8.0 0.00 0.00 0.00 67 1019.7
20260506191004 66 249 0.0 5.0 0.00 0.00 0.00 66 1019.8
20260506190508 66 360 0.0 5.0 0.00 0.00 0.00 69 1019.8
20260506190016 65 319 0.0 5.0 0.00 0.00 0.00 68 1019.8
20260506185508 65 239 1.0 5.0 0.00 0.00 0.00 69 1019.9
20260506185008 65 296 0.0 5.0 0.00 0.00 0.00 69 1020.0
20260506184519 65 235 0.0 5.0 0.00 0.00 0.00 68 1019.9
20260506184010 64 256 0.0 6.0 0.00 0.00 0.00 70 1020.1
20260506183510 64 321 0.0 6.0 0.00 0.00 0.00 72 1020.1
20260506183024 64 263 0.0 5.0 0.00 0.00 0.00 70 1020.2
20260506182510 64 338 0.0 8.0 0.00 0.00 0.00 71 1020.2
20260506182014 63 235 0.0 8.0 0.00 0.00 0.00 71 1020.4
20260506181521 63 321 1.0 8.0 0.00 0.00 0.00 72 1020.4
20260506181004 62 316 0.0 4.0 0.00 0.00 0.00 72 1020.4
20260506180505 63 323 0.0 7.0 0.00 0.00 0.00 72 1020.4
20260506180012 63 332 1.0 7.0 0.00 0.00 0.00 71 1020.3
20260506175507 63 243 1.0 5.0 0.00 0.00 0.00 73 1020.3
20260506175008 63 254 0.0 7.0 0.00 0.00 0.00 75 1020.4
20260506174519 62 299 0.0 7.0 0.00 0.00 0.00 75 1020.4
20260506174014 62 346 2.0 7.0 0.00 0.00 0.00 74 1020.4
20260506173512 62 331 0.0 6.0 0.00 0.00 0.00 75 1020.5
20260506173033 62 317 0.0 10.0 0.00 0.00 0.00 74 1020.4
20260506172507 62 321 1.0 10.0 0.00 0.00 0.00 74 1020.5
20260506172010 62 315 0.0 7.0 0.00 0.00 0.00 74 1020.5
20260506171533 61 316 1.0 7.0 0.00 0.00 0.00 75 1020.5
20260506171011 61 340 0.0 4.0 0.00 0.00 0.00 75 1020.5
20260506170510 61 327 0.0 3.0 0.00 0.00 0.00 76 1020.5
20260506170008 61 300 0.0 7.0 0.00 0.00 0.00 76 1020.5
20260506165508 60 248 1.0 7.0 0.00 0.00 0.00 76 1020.5
20260506165008 60 336 0.0 6.0 0.00 0.00 0.00 77 1020.5
20260506164514 60 352 1.0 6.0 0.00 0.00 0.00 75 1020.5
20260506164007 60 328 1.0 6.0 0.00 0.00 0.00 78 1020.5
20260506163507 59 310 0.0 4.0 0.00 0.00 0.00 79 1020.6
20260506163027 59 325 0.0 5.0 0.00 0.00 0.00 79 1020.6
20260506162509 59 246 0.0 5.0 0.00 0.00 0.00 80 1020.6
20260506162010 59 340 2.0 5.0 0.00 0.00 0.00 81 1020.7
20260506161524 58 304 0.0 0.0 0.00 0.00 0.00 80 1020.7
20260506161011 58 302 0.0 0.0 0.00 0.00 0.00 80 1020.6
20260506160510 58 302 0.0 1.0 0.00 0.00 0.00 82 1020.5
20260506160010 58 302 0.0 1.0 0.00 0.00 0.00 82 1020.7
20260506155504 58 265 0.0 3.0 0.00 0.00 0.00 82 1020.7
20260506155006 58 286 0.0 3.0 0.00 0.00 0.00 83 1020.7
20260506154513 57 247 0.0 2.0 0.00 0.00 0.00 83 1020.6
20260506154007 57 312 0.0 2.0 0.00 0.00 0.00 83 1020.7
20260506153506 57 258 0.0 0.0 0.00 0.00 0.00 82 1020.7
20260506153022 57 258 0.0 0.0 0.00 0.00 0.00 83 1020.6
20260506152508 57 255 0.0 0.0 0.00 0.00 0.00 83 1020.6
20260506152010 57 255 0.0 0.0 0.00 0.00 0.00 83 1020.7
20260506151524 57 255 0.0 1.0 0.00 0.00 0.00 83 1020.7
20260506151008 56 255 0.0 1.0 0.00 0.00 0.00 83 1020.6
20260506150503 56 255 0.0 1.0 0.00 0.00 0.00 84 1020.6
20260506150013 56 282 0.0 0.0 0.00 0.00 0.00 84 1020.6
20260506145503 56 297 0.0 0.0 0.00 0.00 0.00 84 1020.7
20260506145008 56 297 0.0 0.0 0.00 0.00 0.00 84 1020.7
20260506144513 56 297 0.0 0.0 0.00 0.00 0.00 85 1020.7
20260506144007 56 297 0.0 0.0 0.00 0.00 0.00 85 1020.6
20260506143507 56 297 0.0 0.0 0.00 0.00 0.00 85 1020.7
20260506143024 56 297 0.0 0.0 0.00 0.00 0.00 85 1020.7
20260506142507 56 297 0.0 0.0 0.00 0.00 0.00 84 1020.7
20260506142008 56 289 0.0 0.0 0.00 0.00 0.00 84 1020.7
20260506141520 56 289 0.0 0.0 0.00 0.00 0.00 85 1020.7
20260506141008 56 243 0.0 0.0 0.00 0.00 0.00 84 1020.6
20260506140507 56 242 0.0 0.0 0.00 0.00 0.00 85 1020.4
20260506140032 56 242 0.0 0.0 0.00 0.00 0.00 85 1020.4
20260506135511 56 242 0.0 0.0 0.00 0.00 0.00 85 1020.3
20260506135006 56 242 0.0 0.0 0.00 0.00 0.00 85 1020.2
20260506134508 56 242 0.0 0.0 0.00 0.00 0.00 85 1020.2
20260506134004 56 242 0.0 0.0 0.00 0.00 0.00 85 1020.0
20260506133510 56 242 0.0 0.0 0.00 0.00 0.00 84 1020.0
20260506133013 56 309 0.0 0.0 0.00 0.00 0.00 84 1020.0
20260506132507 56 309 0.0 0.0 0.00 0.00 0.00 84 1019.9
20260506132009 56 325 0.0 0.0 0.00 0.00 0.00 84 1019.9
20260506131520 56 325 0.0 0.0 0.00 0.00 0.00 84 1019.8
20260506131009 56 325 0.0 0.0 0.00 0.00 0.00 84 1019.8
20260506130509 55 329 0.0 0.0 0.00 0.00 0.00 84 1019.8
20260506130024 56 339 0.0 0.0 0.00 0.00 0.00 84 1019.8
20260506125509 56 339 0.0 0.0 0.00 0.00 0.00 84 1019.7
20260506125008 56 339 0.0 0.0 0.00 0.00 0.00 84 1019.7
20260506124524 55 339 0.0 0.0 0.00 0.00 0.00 84 1019.7
20260506124003 55 339 0.0 0.0 0.00 0.00 0.00 84 1019.7
20260506123508 55 339 0.0 0.0 0.00 0.00 0.00 85 1019.7
20260506123010 55 270 0.0 0.0 0.00 0.00 0.00 85 1019.7
20260506122505 56 270 0.0 0.0 0.00 0.00 0.00 85 1019.6
20260506122009 56 267 0.0 0.0 0.00 0.00 0.00 86 1019.6
20260506121516 56 267 0.0 0.0 0.00 0.00 0.00 86 1019.5
20260506121008 56 267 0.0 0.0 0.00 0.00 0.00 86 1019.5
20260506120509 56 267 0.0 0.0 0.00 0.00 0.00 86 1019.5
20260506120024 56 267 0.0 0.0 0.00 0.00 0.00 86 1019.4
20260506115508 56 267 0.0 0.0 0.00 0.00 0.00 86 1019.4
20260506115007 56 267 0.0 0.0 0.00 0.00 0.00 86 1019.3
20260506114528 56 267 0.0 0.0 0.00 0.00 0.00 85 1019.3
20260506114009 56 267 0.0 0.0 0.00 0.00 0.00 85 1019.2
20260506113508 56 267 0.0 0.0 0.00 0.00 0.00 85 1019.2
20260506113029 56 267 0.0 0.0 0.00 0.00 0.00 85 1019.2
20260506112505 56 267 0.0 0.0 0.00 0.00 0.00 85 1019.1
20260506112006 56 267 0.0 0.0 0.00 0.00 0.00 85 1019.1
20260506111517 56 267 0.0 0.0 0.00 0.00 0.00 85 1019.2
20260506111005 56 267 0.0 0.0 0.00 0.00 0.00 85 1019.1
20260506110511 56 267 0.0 0.0 0.00 0.00 0.00 84 1019.1
20260506110020 56 267 0.0 0.0 0.00 0.00 0.00 84 1019.2
20260506105508 56 267 0.0 0.0 0.00 0.00 0.00 84 1019.1
20260506105007 56 267 0.0 0.0 0.00 0.00 0.00 84 1019.2
20260506104543 56 267 0.0 0.0 0.00 0.00 0.00 84 1019.1
20260506104010 56 267 0.0 0.0 0.00 0.00 0.00 84 1019.1
20260506103510 56 267 0.0 0.0 0.00 0.00 0.00 84 1019.1
20260506103025 56 267 0.0 0.0 0.00 0.00 0.00 84 1019.0
20260506102511 56 267 0.0 0.0 0.00 0.00 0.00 84 1019.1
20260506102007 56 267 0.0 0.0 0.00 0.00 0.00 84 1019.1
20260506101526 56 267 0.0 0.0 0.00 0.00 0.00 84 1019.1
20260506101006 56 267 0.0 0.0 0.00 0.00 0.00 83 1019.1
20260506100506 56 267 0.0 0.0 0.00 0.00 0.00 83 1019.1
20260506100019 56 267 0.0 0.0 0.00 0.00 0.00 84 1019.1
20260506095506 56 267 0.0 0.0 0.00 0.00 0.00 84 1019.1
20260506095010 56 267 0.0 0.0 0.00 0.00 0.00 84 1019.1
20260506094529 56 267 0.0 0.0 0.00 0.00 0.00 84 1019.1
20260506094006 56 267 0.0 0.0 0.00 0.00 0.00 84 1019.1
20260506093511 56 267 0.0 0.0 0.00 0.00 0.00 84 1019.1
20260506093026 56 267 0.0 0.0 0.00 0.00 0.00 84 1019.2
20260506092510 56 267 0.0 0.0 0.00 0.00 0.00 83 1019.2
20260506092010 56 267 0.0 0.0 0.00 0.00 0.00 83 1019.2
20260506091529 56 306 0.0 0.0 0.00 0.00 0.00 83 1019.3
20260506091011 56 306 0.0 0.0 0.00 0.00 0.00 83 1019.2
20260506090513 56 306 0.0 0.0 0.00 0.00 0.00 83 1019.3
20260506090016 56 306 0.0 0.0 0.00 0.00 0.00 83 1019.2
20260506085511 56 306 0.0 0.0 0.00 0.00 0.00 83 1019.1
20260506085007 56 306 0.0 0.0 0.00 0.00 0.00 83 1019.1
20260506084014 56 306 0.0 0.0 0.00 0.00 0.00 83 1019.0
20260506083509 56 306 0.0 0.0 0.00 0.00 0.00 83 1019.0
20260506083036 56 307 0.0 0.0 0.00 0.00 0.00 83 1019.1
20260506082506 56 257 0.0 0.0 0.00 0.00 0.00 83 1019.1
20260506082009 56 257 0.0 0.0 0.00 0.00 0.00 82 1019.1
20260506081526 56 257 0.0 0.0 0.00 0.00 0.00 82 1019.1
20260506081010 56 257 0.0 0.0 0.00 0.00 0.00 82 1019.1
20260506080509 56 257 0.0 0.0 0.00 0.00 0.00 82 1019.0
20260506073512 56 254 0.0 0.0 0.00 0.00 0.00 81 1018.6
20260506073021 56 254 0.0 0.0 0.00 0.00 0.00 81 1018.6
20260506072512 56 254 0.0 0.0 0.00 0.00 0.00 81 1018.6
20260506072011 57 254 0.0 0.0 0.00 0.00 0.00 81 1018.5
20260506071526 57 254 0.0 0.0 0.00 0.00 0.00 80 1018.5
20260506071010 57 254 0.0 0.0 0.00 0.00 0.00 80 1018.5
20260506070510 57 254 0.0 0.0 0.00 0.00 0.00 80 1018.4
20260506062512 57 346 0.0 0.0 0.00 0.00 0.00 81 1018.3
20260506062011 57 346 0.0 0.0 0.00 0.00 0.00 81 1018.3
20260506061504 57 346 0.0 0.0 0.00 0.00 0.00 81 1018.2
20260506061004 57 346 0.0 0.0 0.00 0.00 0.00 81 1018.2
20260506060507 57 346 0.0 0.0 0.00 0.00 0.00 80 1018.1
20260506051009 58 317 0.0 0.0 0.00 0.00 0.00 76 1017.8
20260506050502 58 240 0.0 0.0 0.00 0.00 0.00 76 1017.8
20260506045003 58 271 0.0 0.0 0.00 0.00 0.00 76 1017.7
20260506044510 58 271 0.0 0.0 0.00 0.00 0.00 76 1017.6
20260506044003 59 270 0.0 0.0 0.00 0.00 0.00 77 1017.6
20260506043511 59 270 0.0 0.0 0.00 0.00 0.00 77 1017.6
20260506043017 59 270 0.0 0.0 0.00 0.00 0.00 76 1017.6
20260506042508 59 270 0.0 0.0 0.00 0.00 0.00 76 1017.6
20260506042008 59 270 0.0 0.0 0.00 0.00 0.00 76 1017.4
20260506041517 59 270 0.0 0.0 0.00 0.00 0.00 76 1017.3
20260506041006 59 270 0.0 0.0 0.00 0.00 0.00 76 1017.4
20260506040507 59 294 0.0 0.0 0.00 0.00 0.00 76 1017.3
20260506040040 59 294 0.0 0.0 0.00 0.00 0.00 76 1017.3
20260506035507 59 292 0.0 0.0 0.00 0.00 0.00 76 1017.3
20260506035006 59 292 0.0 0.0 0.00 0.00 0.00 76 1017.2
20260506034508 59 327 0.0 1.0 0.00 0.00 0.00 76 1017.2
20260506034004 59 317 0.0 1.0 0.00 0.00 0.00 76 1016.9
20260506033507 59 257 0.0 0.0 0.00 0.00 0.00 76 1016.8
20260506033013 59 322 0.0 0.0 0.00 0.00 0.00 76 1016.7
20260506032507 59 322 0.0 0.0 0.00 0.00 0.00 76 1016.7
20260506032005 59 283 0.0 0.0 0.00 0.00 0.00 76 1016.7
20260506031515 59 272 0.0 0.0 0.00 0.00 0.00 76 1016.6
20260506031009 59 313 0.0 0.0 0.00 0.00 0.00 76 1016.5
20260506030508 59 313 0.0 0.0 0.00 0.00 0.00 76 1016.5
20260506030023 59 257 0.0 0.0 0.00 0.00 0.00 76 1016.4
20260506025512 59 269 0.0 0.0 0.00 0.00 0.00 76 1016.3
20260506025008 59 269 0.0 0.0 0.00 0.00 0.00 76 1016.2
20260506024534 59 288 0.0 0.0 0.00 0.00 0.00 75 1016.1
20260506024003 60 288 0.0 0.0 0.00 0.00 0.00 75 1016.1
20260506023503 60 287 0.0 0.0 0.00 0.00 0.00 75 1016.1
20260506023008 60 287 0.0 0.0 0.00 0.00 0.00 75 1016.0
20260506022507 60 287 0.0 0.0 0.00 0.00 0.00 74 1016.0
20260506022008 60 287 0.0 0.0 0.00 0.00 0.00 74 1015.9
20260506021518 60 288 0.0 0.0 0.00 0.00 0.00 74 1015.9
20260506021007 60 288 0.0 0.0 0.00 0.00 0.00 73 1015.9
20260506020508 60 341 0.0 0.0 0.00 0.00 0.00 73 1016.0
20260506020020 60 341 0.0 0.0 0.00 0.00 0.00 73 1016.1
20260506015508 60 341 0.0 0.0 0.00 0.00 0.00 73 1016.1
20260506015010 60 341 0.0 0.0 0.00 0.00 0.00 73 1016.1
20260506014525 60 341 0.0 0.0 0.00 0.00 0.00 73 1016.1
20260506014007 60 341 0.0 0.0 0.00 0.00 0.00 73 1016.1
20260506013511 60 341 0.0 0.0 0.00 0.00 0.00 73 1016.1
20260506013027 60 337 0.0 0.0 0.00 0.00 0.00 74 1016.1
20260506012505 60 337 0.0 0.0 0.00 0.00 0.00 73 1016.0
20260506012007 60 337 0.0 0.0 0.00 0.00 0.00 73 1016.1
20260506011520 60 337 0.0 0.0 0.00 0.00 0.00 73 1016.0
20260506011007 60 337 0.0 0.0 0.00 0.00 0.00 73 1016.0
20260506010508 60 337 0.0 0.0 0.00 0.00 0.00 74 1016.0
20260506010016 60 338 0.0 0.0 0.00 0.00 0.00 73 1016.0
20260506005508 60 337 0.0 0.0 0.00 0.00 0.00 73 1016.1
20260506005013 60 337 0.0 0.0 0.00 0.00 0.00 73 1016.0
20260506004521 60 338 0.0 0.0 0.00 0.00 0.00 75 1016.0
20260506004007 60 337 0.0 0.0 0.00 0.00 0.00 74 1016.0
20260506003508 60 338 0.0 3.0 0.00 0.00 0.00 73 1015.9
20260506003026 60 337 0.0 3.0 0.00 0.00 0.00 73 1015.9
20260506002515 60 360 0.0 2.0 0.00 0.00 0.00 73 1015.9
20260506002012 60 300 0.0 0.0 0.00 0.00 0.00 74 1015.8
20260506001507 60 300 0.0 0.0 0.00 0.00 0.00 74 1015.8
20260506001004 60 300 0.0 4.0 0.00 0.00 0.00 74 1015.8
20260506000504 60 300 0.0 4.0 0.00 0.00 0.00 74 1015.8
20260506000015 60 324 0.0 3.0 0.00 0.00 0.00 74 1015.7
20260505235507 60 360 0.0 3.0 0.00 0.00 0.00 74 1015.7
20260505235012 60 5 0.0 0.0 0.00 0.00 0.00 74 1015.6
20260505234518 60 5 0.0 2.0 0.00 0.00 0.00 74 1015.6
20260505234005 60 5 0.0 2.0 0.00 0.00 0.00 74 1015.6
20260505233509 60 343 0.0 5.0 0.00 0.00 0.00 73 1015.6
20260505233022 60 325 0.0 5.0 0.00 0.00 0.00 73 1015.7
20260505232506 60 329 0.0 4.0 0.00 0.00 0.00 73 1015.7
20260505232013 60 329 0.0 0.0 0.00 0.00 0.00 72 1015.7
20260505231529 60 328 0.0 5.0 0.00 0.00 0.00 73 1015.7
20260505231012 60 328 1.0 5.0 0.00 0.00 0.00 73 1015.7
20260505230511 60 329 1.0 5.0 0.00 0.00 0.00 73 1015.7
20260505230009 60 5 0.0 0.0 0.00 0.00 0.00 73 1015.7
20260505225507 60 314 0.0 2.0 0.00 0.00 0.00 73 1015.7
20260505225006 60 314 0.0 2.0 0.00 0.00 0.00 73 1015.8
20260505224526 60 279 0.0 0.0 0.00 0.00 0.00 73 1015.7
20260505224009 60 278 0.0 2.0 0.00 0.00 0.00 72 1015.8
20260505223507 60 330 0.0 3.0 0.00 0.00 0.00 73 1015.8
20260505223024 60 318 1.0 3.0 0.00 0.00 0.00 72 1015.9
20260505222506 60 283 0.0 0.0 0.00 0.00 0.00 73 1015.9
20260505222009 60 275 0.0 0.0 0.00 0.00 0.00 73 1015.9
20260505221524 60 275 0.0 4.0 0.00 0.00 0.00 73 1015.9
20260505221009 60 253 0.0 4.0 0.00 0.00 0.00 73 1015.9
20260505220512 60 317 0.0 4.0 0.00 0.00 0.00 73 1016.1
20260505220026 60 340 0.0 2.0 0.00 0.00 0.00 73 1016.1
20260505215510 60 300 0.0 1.0 0.00 0.00 0.00 74 1016.1
20260505215006 60 300 0.0 1.0 0.00 0.00 0.00 73 1016.1
20260505214515 60 266 0.0 4.0 0.00 0.00 0.00 74 1016.0
20260505214005 59 252 0.0 4.0 0.00 0.00 0.00 73 1016.1
20260505213506 59 248 0.0 1.0 0.00 0.00 0.00 74 1016.2
20260505213021 59 247 0.0 1.0 0.00 0.00 0.00 74 1016.2
20260505212512 59 247 0.0 1.0 0.00 0.00 0.00 72 1016.3
20260505212008 59 315 0.0 1.0 0.00 0.00 0.00 74 1016.3